Temperature
19 19 19 20 16 14 17 17 17 18 20 21 20 20 19 19 19 20 20 21 21 21 20 20 20 19 19 19 18 18 18 18 17 17 17 16 16 16 16 16 16 16 16 16 16 16 16 16 16
19 19 19 19 14 15 17 16 18 19 20 21 21 20 19 19 19 20 20 20 20 20 20 19 19 19 19 18 18 18 18 17 17 17 16 16 16 15 15 15 16 16 16 16 16 16 16 16 16
19 19 20 14 15 15 17 17 17 18 20 21 20 20 19 18 19 19 19 20 19 19 19 18 18 18 18 18 18 17 17 17 17 16 16 16 15 15 15 15 15 15 15 16 16 16 16 16 16
19 20 19 15 15 16 16 16 16 17 20 20 20 19 18 16 17 18 19 19 19 18 18 18 17 17 17 17 17 17 16 16 16 16 16 16 15 15 15 15 15 15 15 15 15 15 16 16 16
20 20 14 14 16 16 15 16 17 16 17 17 19 18 17 16 17 18 18 18 18 17 17 17 17 17 16 16 16 16 16 16 16 16 15 15 15 15 15 15 15 15 15 15 15 15 15 15 15
20 15 13 15 16 16 16 17 17 15 15 15 16 17 16 15 17 17 17 17 17 16 16 16 16 16 16 16 16 15 15 15 15 15 15 15 15 14 14 14 14 15 15 15 15 15 15 15 15
18 13 14 16 16 16 17 18 16 15 13 12 14 15 15 14 15 15 16 17 16 16 16 16 16 15 15 15 15 15 15 15 14 14 14 14 14 14 14 14 14 14 14 15 15 15 15 15 15
18 13 15 15 16 17 17 17 15 13 12 10 11 9 9 10 13 14 16 16 15 15 15 15 15 15 15 14 14 14 14 14 14 14 14 14 14 14 14 14 14 14 14 14 14 14 14 14 15
19 13 15 17 17 17 16 15 14 12 10 9 7 7 7 9 12 15 15 14 14 13 13 13 14 14 14 14 14 13 13 13 13 13 14 14 14 14 14 14 14 14 14 14 14 14 14 14 14
18 14 17 18 17 16 13 11 11 10 8 8 7 8 9 11 12 13 12 12 12 12 12 12 13 13 13 13 13 13 13 13 13 13 13 13 13 13 13 13 13 13 13 13 13 14 13 13 13
17 16 17 17 17 16 13 9 9 9 7 6 6 7 9 10 10 10 9 9 10 10 11 11 12 12 12 13 13 13 13 13 13 13 13 13 13 13 13 13 13 13 13 13 13 13 13 13 13
17 16 16 16 16 14 11 10 8 7 7 7 7 7 8 8 8 8 8 8 9 10 10 10 11 11 12 12 12 12 12 13 13 12 12 13 13 13 13 13 13 13 13 13 13 13 13 13 13
16 15 13 12 12 10 9 8 8 7 7 7 7 8 7 7 7 7 7 8 8 9 9 9 10 10 11 11 11 11 12 12 12 12 12 12 12 12 13 13 13 13 13 13 13 12 12 12 12
15 15 14 13 12 11 9 8 8 7 7 7 7 7 6 6 6 7 7 7 7 7 8 8 9 9 10 10 10 10 11 11 11 12 12 12 12 12 12 13 13 13 13 12 12 12 12 12 12
16 13 13 13 13 11 10 7 7 7 7 7 6 6 6 6 6 6 6 6 6 6 7 7 8 8 8 9 9 9 10 10 11 11 11 11 12 12 12 12 12 12 12 12 12 12 12 12 12
14 13 13 13 12 12 10 5 7 7 7 6 6 6 6 5 5 5 5 5 5 6 6 6 7 7 7 7 7 7 8 8 9 9 10 10 11 11 11 11 11 12 12 12 12 12 12 12 12
12 13 14 13 10 9 7 5 6 6 6 5 5 5 5 5 5 5 5 5 5 5 5 5 6 6 6 6 6 6 6 6 6 7 7 8 9 9 9 10 10 11 11 11 11 11 11 11 11
14 14 13 12 9 7 6 5 5 5 5 4 4 5 5 4 4 4 4 4 4 4 4 4 4 4 4 5 5 5 5 4 4 4 5 5 6 6 7 8 8 9 9 10 10 10 11 11 11
14 13 12 10 9 6 5 5 5 5 4 3 4 4 4 4 4 4 4 4 4 4 4 3 3 3 3 3 3 3 3 2 3 3 3 3 4 4 5 5 6 7 8 8 9 9 10 10 10
13 13 12 10 9 6 5 4 3 4 3 3 3 3 3 3 3 3 3 3 2 2 2 2 2 1 1 0 0 0 0 1 1 1 2 2 3 3 3 3 4 5 6 7 8 8 9 9 9
12 13 12 10 7 6 5 5 3 3 3 3 3 3 3 2 2 2 1 1 1 1 1 0 0 -0 -1 -1 -1 -1 -1 -1 -0 0 1 1 2 2 2 3 3 3 4 5 6 7 8 8 9
12 12 11 10 8 6 6 4 3 2 2 2 2 2 2 2 1 1 0 -0 -0 -1 -1 -1 -1 -1 -2 -2 -2 -3 -3 -3 -3 -2 -1 0 1 1 1 2 2 2 3 3 4 6 6 7 8
11 10 10 9 8 6 6 4 3 2 2 1 2 2 2 1 1 0 -0 -1 -2 -2 -2 -2 -2 -2 -3 -3 -3 -4 -4 -4 -4 -4 -3 -2 -1 -0 0 0 1 1 2 2 3 4 5 6 6
9 9 9 7 7 8 7 5 3 1 2 1 1 2 1 1 0 -1 -1 -2 -3 -3 -3 -4 -4 -4 -4 -4 -4 -5 -5 -5 -5 -5 -4 -4 -4 -3 -2 -1 -1 -0 0 1 2 3 4 5 5
8 8 9 9 9 8 4 3 1 2 2 2 2 1 1 0 -1 -2 -2 -3 -4 -4 -4 -5 -5 -5 -5 -5 -6 -6 -6 -6 -6 -6 -6 -6 -5 -5 -4 -3 -2 -2 -1 -0 1 1 2 3 4
9 9 9 9 8 6 4 2 1 2 2 2 2 1 0 -1 -2 -2 -3 -4 -5 -5 -5 -6 -6 -6 -6 -6 -6 -7 -7 -7 -7 -7 -7 -6 -6 -6 -5 -4 -3 -3 -2 -1 -0 0 1 2 3
10 7 8 6 6 5 4 2 2 2 2 2 1 1 -0 -1 -2 -3 -4 -5 -5 -5 -6 -6 -7 -7 -7 -7 -7 -7 -8 -8 -7 -7 -7 -7 -6 -6 -6 -5 -4 -3 -3 -2 -1 -1 0 1 2
8 7 6 7 7 6 5 2 1 1 0 -0 0 0 -1 -2 -3 -4 -4 -5 -5 -6 -6 -7 -7 -8 -8 -8 -8 -9 -8 -8 -8 -7 -7 -7 -7 -6 -6 -5 -5 -4 -3 -3 -2 -1 -1 -0 1
8 7 5 4 5 5 4 4 1 1 1 -1 0 0 -1 -2 -3 -4 -5 -5 -6 -7 -7 -8 -8 -8 -9 -9 -9 -9 -9 -9 -8 -8 -8 -7 -7 -7 -6 -6 -6 -5 -4 -4 -3 -2 -2 -1 -0
7 6 5 6 5 3 2 2 2 1 1 1 0 -0 -2 -3 -4 -4 -5 -6 -7 -7 -8 -8 -9 -9 -9 -9 -9 -9 -9 -9 -9 -9 -8 -8 -8 -7 -7 -7 -6 -6 -5 -4 -4 -3 -2 -2 -1
Wind_Speed
11 6 3 4 6 7 6 6 4 7 6 4 3 7 9 6 5 5 3 3 4 5 8 8 9 8 7 6 5 3 3 2 1 2 2 3 3 3 4 5 6 6 6 6 5 5 4 3 3
6 3 5 5 6 7 6 8 8 7 5 1 4 6 8 8 5 4 7 5 5 6 6 4 7 7 6 6 5 5 4 3 3 3 4 4 5 5 6 6 6 7 8 9 8 7 5 4 4
4 5 5 6 6 5 5 8 7 8 6 4 5 7 6 7 9 8 9 4 7 6 4 2 5 5 5 5 5 5 5 5 5 5 5 6 6 7 6 6 6 6 7 9 9 7 6 5 5
4 6 6 9 9 4 3 7 8 8 8 10 5 7 6 8 11 10 8 7 9 7 6 3 2 3 4 5 6 6 6 6 6 6 7 7 8 8 7 6 5 6 7 6 7 7 6 6 5
5 6 9 8 8 6 6 7 8 9 8 10 7 7 6 11 15 14 13 12 11 9 12 11 6 5 5 5 6 6 6 7 7 8 8 9 10 10 9 6 5 6 7 7 6 6 6 6 6
5 6 7 6 5 7 6 7 6 8 8 9 10 5 6 13 23 18 16 17 16 15 19 20 18 15 10 7 6 6 7 7 8 9 9 10 10 11 10 8 7 6 7 7 6 6 6 6 6
5 6 6 5 4 7 9 6 7 7 10 11 11 6 7 18 22 14 16 19 20 24 24 24 24 22 19 14 11 9 8 9 9 10 11 11 11 11 10 9 8 8 8 8 8 7 6 6 6
5 6 6 4 5 6 8 6 7 12 9 8 9 10 8 15 16 12 20 22 22 22 24 25 27 26 23 20 21 19 17 15 14 13 13 13 12 11 11 10 9 10 10 10 10 10 9 8 7
5 6 5 3 3 4 7 7 8 8 9 11 11 9 8 12 12 22 25 25 24 24 21 24 25 27 25 23 25 26 24 24 22 19 18 15 11 10 10 11 12 12 13 13 13 13 11 10 8
6 5 3 1 2 4 8 9 8 9 14 11 12 15 12 13 22 26 24 23 23 22 20 20 23 25 25 23 23 23 22 23 22 22 22 16 13 10 10 11 13 13 14 14 15 15 13 10 7
6 5 2 4 4 6 7 10 12 8 14 9 9 12 13 20 24 23 20 15 14 12 16 18 21 24 24 20 20 20 19 20 22 24 24 21 16 13 12 10 10 11 10 9 10 10 8 7 6
6 5 5 5 6 7 7 6 11 17 8 6 7 8 14 21 20 18 16 15 14 16 18 16 21 22 22 21 18 19 18 18 18 21 24 20 12 11 11 8 10 9 8 6 6 5 6 6 7
6 5 10 17 24 19 20 15 12 12 8 7 9 15 18 18 14 12 12 14 17 19 19 17 18 20 21 18 18 18 17 17 18 19 22 21 12 8 9 8 9 9 9 6 4 4 5 5 5
5 7 8 8 11 8 17 12 9 8 7 9 14 16 14 15 15 16 18 19 19 18 18 17 15 21 21 17 15 14 17 17 18 18 20 21 17 13 10 8 7 8 9 8 6 5 5 5 5
5 8 8 6 6 6 12 13 8 6 7 12 13 13 14 14 16 16 15 15 15 16 16 18 16 22 20 17 17 17 17 18 16 17 19 20 20 17 13 9 9 8 12 10 7 6 4 5 5
6 6 6 5 5 5 10 8 5 7 9 13 12 12 13 14 14 13 14 14 14 15 16 17 18 18 17 17 16 17 17 18 17 18 19 20 21 19 14 9 10 13 13 7 7 6 5 6 6
8 5 4 4 9 7 9 8 5 8 10 12 11 11 12 13 14 13 13 13 13 14 15 16 16 16 16 17 17 16 16 15 17 18 19 21 21 21 16 9 9 15 9 8 8 6 5 6 6
3 3 4 5 7 9 11 10 7 8 11 11 10 11 12 14 13 11 12 12 12 13 14 14 15 15 15 13 11 9 9 11 15 16 18 21 21 21 18 11 12 13 10 9 8 8 7 6 7
2 3 4 5 5 8 12 11 8 8 10 12 11 12 13 12 11 11 12 14 15 17 17 17 17 16 14 13 13 12 11 11 10 13 19 21 21 21 17 11 11 11 11 11 12 9 9 7 5
5 5 4 4 6 7 10 10 8 9 8 7 8 10 11 12 14 14 15 15 16 17 17 17 17 17 15 14 12 9 10 9 10 14 18 20 21 20 17 12 12 12 12 13 12 10 7 6 5
5 4 2 3 5 6 8 6 6 5 6 8 8 8 9 11 11 11 12 12 13 15 17 18 17 17 15 14 11 12 10 10 11 13 13 18 22 21 18 15 12 13 11 11 13 11 10 9 7
3 2 2 4 5 5 7 5 5 4 7 9 10 10 11 10 9 9 11 13 15 15 16 17 18 17 15 14 14 15 13 13 14 13 13 16 20 19 18 17 14 13 12 12 12 12 10 9 9
5 3 1 2 6 4 2 4 2 2 6 7 9 10 10 10 9 9 11 12 13 14 15 16 17 17 17 16 17 16 14 13 13 14 15 14 13 16 17 18 14 14 13 14 13 13 11 8 8
4 3 4 5 4 2 1 5 2 1 1 4 7 10 11 11 9 9 9 11 12 14 15 16 17 17 18 18 18 18 18 18 18 19 17 16 14 13 15 18 14 14 14 15 14 12 12 9 8
9 7 6 7 4 2 3 4 3 3 2 2 6 10 11 10 9 9 12 13 14 15 16 17 18 18 18 18 18 17 18 18 18 18 17 17 14 15 16 17 16 15 14 15 13 12 11 10 9
5 5 4 3 5 5 2 2 5 5 2 3 6 9 10 9 8 9 10 11 13 14 16 17 18 18 18 18 18 16 17 14 14 17 16 16 14 14 17 17 17 17 16 16 14 11 11 9 8
3 3 2 4 3 5 2 1 3 2 5 7 8 9 10 9 8 9 9 10 11 13 14 16 17 17 18 18 17 15 16 16 16 17 15 14 14 15 17 17 18 18 17 16 15 11 11 9 8
5 6 4 3 4 7 5 4 4 2 8 9 10 11 10 8 8 8 8 9 10 11 12 14 15 16 16 17 16 16 15 15 16 15 16 16 16 16 17 17 18 19 18 18 16 13 11 10 8
4 4 5 4 3 3 6 4 5 3 6 9 11 10 10 8 8 8 8 8 10 10 12 13 15 16 16 16 16 15 15 15 15 14 16 16 15 16 17 17 17 18 18 18 16 15 15 12 10
4 4 4 1 3 4 3 5 4 4 5 8 10 10 8 7 8 7 8 9 10 11 12 13 14 15 16 16 15 15 15 15 15 15 16 16 16 15 16 16 16 17 18 17 17 16 16 15 12
Wind_Direction
337 352 59 53 54 54 42 354 330 337 353 6 64 110 101 82 83 97 324 59 102 118 163 181 175 181 184 188 194 196 205 219 255 307 317 312 300 285 289 284 282 275 266 259 253 247 244 238 222
333 1 50 57 74 64 12 342 351 343 326 325 70 72 61 36 18 20 358 21 76 111 143 160 182 189 195 200 206 211 219 231 245 267 288 293 295 290 292 287 290 285 269 260 256 252 247 241 231
9 46 71 64 63 72 0 333 324 321 346 35 70 57 58 16 354 349 333 53 76 89 111 139 196 205 214 219 224 228 231 238 246 256 271 281 282 289 294 296 303 309 289 265 255 252 248 241 230
50 41 53 66 64 23 332 315 326 348 15 19 51 55 59 32 345 331 345 55 65 54 44 22 246 242 245 245 245 245 245 247 251 258 267 279 280 285 293 296 307 316 312 288 264 255 253 248 236
55 69 60 56 46 355 341 335 348 27 25 4 31 75 50 5 354 5 20 38 42 32 23 13 347 321 292 271 262 257 256 259 263 265 268 279 284 285 287 278 283 298 305 302 287 275 271 265 255
49 62 73 65 27 344 356 344 16 34 18 15 14 65 69 3 8 7 27 40 38 31 24 17 6 357 341 314 289 275 268 266 270 272 272 273 279 287 288 274 262 273 285 290 291 287 287 286 279
83 74 80 86 42 20 357 3 31 28 34 8 347 38 7 2 357 2 33 39 37 32 27 20 14 8 360 350 335 316 301 291 285 282 283 283 281 285 288 289 273 264 271 277 278 277 278 283 288
102 89 64 54 56 23 352 36 45 36 39 12 22 34 2 337 341 14 38 37 33 30 25 18 16 14 11 10 8 2 356 347 333 317 306 298 288 283 284 285 282 273 270 269 268 268 268 271 278
78 72 70 58 74 33 13 47 40 46 52 45 46 34 352 335 12 38 36 32 29 27 24 19 18 16 15 18 18 15 13 9 5 355 342 326 306 292 283 279 277 274 272 268 265 262 261 265 272
66 91 83 45 96 90 52 46 29 57 44 30 27 22 14 28 42 44 38 32 27 22 22 22 20 18 17 17 15 13 12 10 10 7 1 352 339 322 306 293 287 282 280 277 270 263 261 263 265
68 109 75 39 63 83 84 59 28 76 47 21 17 13 24 43 45 44 40 34 25 18 24 22 21 20 21 17 16 14 9 8 7 8 6 2 358 350 340 324 312 305 297 289 280 272 261 257 256
69 47 40 21 46 62 66 84 58 55 68 33 33 36 43 46 43 38 34 29 22 24 20 17 19 19 18 18 16 16 12 8 6 3 6 6 0 355 347 336 324 313 302 290 279 265 255 253 254
58 59 65 80 81 86 85 80 84 55 48 44 52 50 45 45 38 32 33 29 24 21 15 9 13 14 11 13 13 14 10 8 3 4 5 4 360 351 344 337 331 320 311 295 281 267 258 251 251
65 79 94 84 88 77 83 73 76 47 26 43 48 45 38 36 29 29 26 23 19 15 10 4 9 9 6 6 4 5 4 2 3 3 1 2 358 351 344 335 330 325 317 301 282 267 263 257 248
104 95 79 71 96 137 95 56 55 50 43 49 39 34 34 30 27 26 19 17 13 10 7 5 4 4 1 360 358 358 356 357 358 357 357 359 357 351 344 334 329 325 321 309 291 273 257 255 250
63 65 64 29 52 77 85 87 51 38 53 49 35 30 32 28 25 22 21 18 14 9 5 3 2 359 356 354 351 351 351 353 353 352 352 355 353 350 344 334 327 324 321 310 296 277 263 250 241
35 58 57 33 28 50 80 108 57 37 57 51 34 28 28 25 21 18 19 17 12 7 2 359 357 356 352 349 346 343 344 347 347 348 349 349 348 348 343 330 325 325 319 309 301 289 259 255 247
10 39 37 38 30 61 89 101 72 47 59 50 34 27 24 21 10 5 11 9 6 4 0 357 355 353 349 347 343 338 339 341 341 343 345 344 343 343 340 333 331 328 320 313 304 292 274 253 249
124 94 72 54 55 79 97 98 71 50 50 43 33 24 15 8 357 5 9 7 5 4 1 357 355 353 353 352 347 342 341 340 338 340 341 340 340 339 336 336 333 331 323 311 302 293 282 263 240
88 95 87 91 75 97 102 88 64 48 53 46 33 18 4 1 1 2 3 3 1 358 356 354 353 350 352 349 343 337 334 334 335 337 336 338 338 335 336 336 335 332 327 319 312 299 283 270 225
51 101 138 141 77 88 115 99 92 51 52 42 26 9 2 3 351 350 356 356 356 356 354 351 348 348 349 349 347 344 340 340 342 339 336 335 334 332 332 333 333 331 330 326 319 307 287 277 260
345 351 257 182 151 178 158 167 169 111 43 22 6 358 351 348 345 349 355 355 355 352 349 347 346 346 349 350 350 348 348 343 338 334 329 328 328 328 332 335 334 331 329 327 325 320 300 279 270
282 319 260 172 153 120 135 142 202 76 34 3 347 341 338 337 343 347 352 351 352 351 349 347 345 348 351 351 350 348 348 343 337 335 332 331 328 330 335 335 334 332 329 326 324 323 314 294 275
322 31 85 66 94 149 239 174 231 41 59 328 333 333 333 333 339 343 348 352 353 351 350 349 347 349 351 352 351 349 347 344 340 340 337 336 334 334 335 336 334 330 328 325 323 323 318 312 293
27 43 17 2 359 277 77 108 182 174 176 316 328 325 325 329 338 345 352 355 354 352 351 350 348 349 350 350 348 346 347 344 341 338 335 334 333 334 335 337 333 330 326 322 323 323 320 315 308
24 72 98 289 280 296 37 158 207 189 217 297 310 312 318 328 339 344 350 355 352 351 352 351 349 347 349 349 346 344 348 345 339 335 332 330 330 329 332 333 332 330 328 325 322 318 318 320 315
64 79 134 161 292 284 265 176 233 230 311 311 310 317 322 327 335 339 347 356 353 353 353 349 347 347 347 345 343 343 346 342 338 334 332 331 330 330 334 335 336 335 332 330 326 317 314 314 310
83 130 80 69 331 303 290 222 214 263 306 310 314 318 321 327 333 338 351 356 355 355 351 348 347 346 343 343 343 343 340 339 337 335 335 333 332 334 335 339 339 338 337 337 334 326 317 312 310
27 60 85 99 160 240 293 277 169 211 286 303 306 308 316 328 334 342 351 355 352 353 351 347 346 345 343 341 339 338 337 337 337 337 336 334 334 336 338 340 340 340 339 339 338 336 333 324 314
96 96 117 130 259 206 236 265 166 197 285 296 299 306 316 325 330 341 348 353 352 351 349 346 344 343 340 338 337 336 336 337 338 337 336 336 336 336 338 339 340 341 341 341 344 344 345 341 333
Height
1513 1512 1511 1512 1515 1527 1531 1529 1525 1522 1519 1518 1518 1519 1521 1525 1529 1536 1533 1531 1531 1531 1530 1530 1530 1530 1530 1530 1530 1530 1530 1530 1530 1530 1530 1530 1531 1531 1532 1532 1533 1533 1533 1533 1533 1533 1534 1534 1534
1513 1512 1513 1513 1525 1541 1538 1530 1526 1523 1521 1520 1520 1522 1524 1527 1530 1533 1533 1533 1533 1533 1533 1532 1532 1531 1531 1531 1531 1530 1530 1530 1530 1529 1529 1530 1530 1530 1530 1531 1531 1531 1532 1532 1532 1532 1532 1533 1533
1513 1513 1514 1519 1534 1543 1540 1532 1528 1524 1522 1521 1523 1525 1529 1535 1536 1536 1536 1536 1536 1535 1535 1534 1533 1533 1532 1532 1531 1531 1530 1530 1529 1529 1529 1529 1529 1529 1529 1529 1530 1530 1530 1530 1530 1531 1531 1532 1532
1514 1515 1517 1528 1540 1539 1537 1533 1528 1524 1522 1523 1525 1530 1537 1541 1541 1540 1538 1538 1538 1537 1537 1536 1535 1534 1533 1532 1531 1531 1530 1529 1529 1528 1528 1527 1527 1528 1528 1528 1528 1528 1528 1528 1529 1529 1530 1530 1531
1516 1517 1529 1540 1541 1538 1535 1532 1530 1528 1528 1530 1529 1535 1540 1543 1542 1541 1539 1539 1538 1538 1538 1537 1536 1535 1534 1532 1531 1531 1530 1529 1528 1527 1527 1526 1526 1526 1526 1526 1526 1526 1526 1526 1527 1527 1528 1528 1529
1518 1521 1541 1548 1544 1540 1536 1535 1533 1533 1533 1533 1535 1538 1545 1547 1542 1541 1540 1538 1538 1537 1537 1536 1535 1535 1534 1533 1532 1531 1530 1529 1528 1527 1525 1525 1524 1524 1524 1524 1524 1524 1524 1524 1524 1525 1525 1526 1526
1521 1531 1544 1545 1545 1542 1539 1537 1538 1539 1539 1543 1542 1543 1547 1546 1545 1544 1541 1539 1538 1537 1537 1536 1534 1534 1533 1533 1532 1531 1530 1529 1527 1526 1525 1524 1523 1522 1522 1521 1521 1521 1521 1521 1522 1522 1523 1523 1524
1524 1532 1544 1547 1546 1545 1542 1542 1545 1546 1549 1551 1549 1552 1555 1553 1550 1547 1543 1540 1539 1538 1537 1536 1535 1534 1533 1532 1531 1530 1529 1527 1526 1525 1523 1522 1521 1520 1519 1519 1519 1518 1518 1518 1519 1519 1519 1520 1520
1527 1540 1549 1545 1545 1545 1545 1546 1551 1557 1557 1559 1561 1563 1563 1558 1552 1547 1543 1542 1541 1540 1540 1539 1537 1535 1533 1532 1530 1529 1527 1526 1524 1523 1521 1520 1519 1518 1517 1516 1516 1516 1515 1515 1516 1516 1516 1517 1517
1530 1545 1543 1542 1543 1546 1550 1552 1556 1561 1560 1564 1565 1565 1563 1558 1552 1547 1547 1546 1545 1544 1543 1541 1539 1537 1535 1533 1531 1529 1528 1526 1524 1522 1520 1518 1517 1516 1515 1515 1514 1513 1513 1513 1512 1513 1513 1513 1513
1534 1542 1542 1543 1544 1546 1551 1558 1561 1561 1571 1574 1573 1570 1565 1559 1555 1553 1553 1553 1551 1549 1546 1544 1541 1539 1536 1534 1532 1530 1528 1526 1523 1521 1519 1517 1515 1514 1513 1512 1511 1511 1510 1510 1510 1509 1509 1510 1510
1538 1542 1543 1545 1545 1548 1554 1561 1568 1569 1580 1580 1576 1572 1567 1562 1561 1560 1559 1557 1555 1552 1549 1546 1543 1540 1537 1535 1532 1530 1527 1525 1523 1520 1518 1516 1514 1512 1511 1509 1508 1508 1507 1507 1506 1506 1506 1506 1506
1541 1546 1549 1550 1550 1555 1559 1566 1572 1580 1582 1581 1578 1573 1569 1568 1567 1566 1564 1560 1557 1554 1551 1548 1545 1541 1538 1535 1532 1529 1527 1524 1522 1519 1517 1514 1512 1510 1509 1507 1506 1504 1503 1503 1502 1502 1502 1502 1502
1545 1547 1551 1553 1553 1559 1562 1571 1575 1586 1584 1582 1578 1575 1574 1572 1571 1568 1564 1562 1559 1556 1553 1550 1546 1543 1540 1536 1532 1529 1526 1522 1520 1517 1514 1512 1509 1507 1505 1504 1502 1501 1499 1498 1498 1497 1497 1497 1497
1545 1549 1553 1556 1557 1562 1562 1578 1585 1588 1586 1583 1581 1580 1579 1577 1574 1571 1569 1566 1563 1559 1556 1551 1547 1543 1539 1535 1532 1528 1525 1521 1517 1514 1511 1508 1505 1502 1500 1499 1497 1496 1495 1493 1493 1492 1492 1492 1492
1546 1553 1560 1560 1560 1563 1568 1591 1592 1591 1588 1586 1585 1584 1582 1580 1578 1576 1573 1569 1566 1561 1557 1552 1548 1543 1538 1534 1530 1526 1522 1518 1514 1511 1507 1504 1500 1497 1494 1493 1491 1490 1488 1487 1487 1486 1486 1486 1486
1557 1561 1563 1564 1565 1566 1574 1591 1594 1593 1590 1589 1588 1587 1585 1582 1580 1577 1574 1571 1567 1562 1557 1552 1547 1542 1537 1532 1528 1523 1519 1515 1511 1507 1503 1499 1495 1492 1488 1486 1484 1482 1481 1480 1480 1479 1479 1479 1479
1562 1563 1564 1569 1572 1574 1581 1592 1595 1595 1593 1592 1591 1589 1587 1584 1582 1579 1575 1571 1567 1562 1557 1551 1546 1540 1535 1529 1524 1519 1515 1511 1507 1503 1499 1495 1490 1486 1482 1479 1477 1475 1473 1473 1472 1472 1472 1471 1472
1559 1563 1568 1574 1575 1582 1588 1595 1598 1598 1595 1595 1593 1591 1589 1587 1585 1581 1576 1571 1566 1560 1555 1549 1543 1538 1532 1526 1520 1514 1510 1505 1501 1498 1495 1490 1486 1481 1477 1473 1470 1468 1466 1465 1464 1464 1463 1464 1465
1560 1565 1570 1575 1578 1585 1594 1599 1601 1600 1599 1599 1596 1594 1591 1588 1584 1580 1576 1571 1565 1560 1554 1548 1542 1536 1530 1525 1519 1514 1509 1504 1499 1495 1491 1487 1482 1477 1473 1468 1464 1462 1459 1457 1457 1457 1456 1455 1458
1564 1566 1568 1573 1582 1586 1592 1600 1604 1604 1601 1600 1598 1596 1593 1589 1585 1580 1576 1571 1565 1559 1553 1547 1541 1535 1529 1523 1517 1511 1505 1500 1495 1489 1485 1482 1477 1473 1469 1464 1460 1457 1454 1451 1450 1449 1448 1448 1449
1568 1565 1566 1569 1579 1588 1589 1602 1604 1604 1602 1600 1598 1596 1593 1589 1585 1581 1576 1570 1564 1559 1552 1546 1539 1533 1527 1521 1515 1509 1503 1497 1492 1487 1482 1478 1474 1469 1465 1460 1456 1452 1449 1446 1443 1442 1441 1441 1441
1566 1565 1565 1567 1574 1583 1586 1596 1603 1603 1603 1602 1599 1596 1593 1589 1585 1580 1575 1570 1564 1557 1550 1544 1538 1532 1525 1519 1514 1508 1502 1496 1490 1484 1479 1473 1468 1464 1460 1455 1451 1447 1444 1441 1438 1436 1435 1434 1434
1565 1565 1567 1572 1576 1579 1584 1591 1602 1605 1604 1602 1599 1596 1592 1587 1583 1579 1574 1568 1562 1555 1548 1542 1535 1530 1524 1518 1512 1506 1500 1493 1487 1481 1475 1469 1464 1459 1455 1450 1446 1442 1439 1436 1433 1430 1428 1427 1427
1569 1574 1578 1576 1577 1579 1593 1597 1606 1603 1602 1600 1598 1595 1590 1586 1581 1576 1571 1564 1558 1552 1545 1539 1533 1527 1521 1515 1510 1504 1498 1492 1486 1479 1473 1468 1462 1457 1451 1447 1442 1438 1434 1431 1428 1425 1423 1422 1421
1575 1578 1588 1590 1587 1588 1592 1600 1606 1601 1600 1599 1597 1594 1589 1584 1580 1575 1569 1563 1557 1550 1544 1537 1531 1525 1519 1513 1507 1502 1497 1490 1484 1478 1473 1467 1462 1456 1450 1444 1439 1435 1431 1427 1424 1421 1419 1416 1415
1576 1584 1584 1593 1593 1595 1594 1603 1602 1600 1599 1597 1594 1590 1586 1582 1577 1573 1567 1561 1555 1549 1542 1536 1529 1523 1517 1511 1505 1500 1494 1488 1482 1476 1471 1465 1460 1454 1448 1442 1436 1431 1427 1424 1420 1417 1414 1412 1411
1579 1584 1590 1590 1592 1590 1587 1600 1602 1600 1599 1595 1591 1587 1583 1579 1575 1570 1565 1559 1554 1548 1541 1535 1528 1522 1516 1510 1504 1498 1492 1487 1480 1474 1468 1462 1457 1452 1446 1440 1434 1429 1425 1421 1417 1413 1410 1408 1406
1583 1586 1592 1599 1598 1598 1598 1594 1598 1598 1596 1594 1590 1586 1581 1577 1573 1568 1563 1558 1552 1546 1539 1533 1527 1521 1514 1508 1502 1497 1491 1485 1479 1472 1466 1460 1454 1449 1443 1438 1433 1428 1423 1419 1414 1410 1407 1404 1402
1585 1588 1591 1595 1597 1604 1609 1601 1595 1595 1594 1592 1588 1584 1579 1576 1572 1567 1562 1556 1550 1544 1537 1531 1525 1519 1513 1507 1501 1496 1489 1483 1477 1470 1464 1458 1452 1447 1442 1437 1432 1427 1422 1418 1413 1408 1405 1402 1399